Milledgeville, GA

9:50 PM EST on December 15, 2019 (GMT -0500)
Baldwin County

Weather History for KMLJ - October, 2019

Change the Weather History Date:

Wednesday, October 9, 2019

  Actual Average (KOKZ) Record (KOKZ)
Temperature  
Mean Temperature 70 °F -  
Max Temperature 77 °F 77 °F 87 °F (2014)
Min Temperature 64 °F 55 °F 58 °F (2016)
Cooling Degree Days 6    
Growing Degree Days 20 (Base 50)    
Moisture  
Dew Point 62 °F    
Average Humidity 81    
Maximum Humidity 94    
Minimum Humidity 57    
Precipitation  
Precipitation 0.00 in - - ()
Sea Level Pressure  
Sea Level Pressure 30.11 in    
Wind  
Wind Speed 4 mph (ENE)    
Max Wind Speed 9 mph    
Max Gust Speed -    
Visibility 10 miles    
Events Rain    
Averages and records for this station are not official NWS values.
T = Trace of Precipitation, MM = Missing Value Source: NWS Daily Summary

Daily Weather History Graph

Daily Weather History Graph

Search for Another Location

Airport or City:

Astronomy

Oct. 09, 2019 Rise Set
Actual Time 7:32 AM EDT 7:07 PM EDT
Civil Twilight 7:07 AM EDT 7:32 PM EDT
Nautical Twilight 6:39 AM EDT 8:00 PM EDT
Astronomical Twilight 6:10 AM EDT 8:29 PM EDT
Moon 5:22 PM EDT (10/9) 3:35 AM EDT (10/9)
Length of Visible Light 12h 24m
Length of Day
11h 34m
Waxing Gibbous, 85% of the Moon is Illuminated
Oct 9
Waxing Gibbous
Oct 13
Full
Oct 21
Last Quarter
Oct 27
New
Nov 4
First Quarter

Hourly Weather History & Observations

Time (EDT) Temp. Dew Point Humidity Pressure Visibility Wind Dir Wind Speed Gust Speed Precip Events Conditions
12:15 AM 71.6 °F 66.2 °F 83% 30.07 in 10.0 mi East 5.8 mph - N/A   Scattered Clouds
12:35 AM 69.8 °F 66.2 °F 88% 30.07 in 10.0 mi ENE 9.2 mph - N/A   Scattered Clouds
12:55 AM 69.8 °F 64.4 °F 83% 30.07 in 10.0 mi East 8.1 mph - N/A   Scattered Clouds
1:15 AM 69.8 °F 64.4 °F 83% 30.07 in 10.0 mi ENE 4.6 mph - N/A   Mostly Cloudy
1:35 AM 69.8 °F 64.4 °F 83% 30.07 in 10.0 mi East 6.9 mph - N/A   Mostly Cloudy
1:55 AM 69.8 °F 64.4 °F 83% 30.07 in 10.0 mi ENE 4.6 mph - N/A   Overcast
2:15 AM 68.0 °F 62.6 °F 83% 30.07 in 10.0 mi ENE 4.6 mph - N/A   Overcast
2:35 AM 68.0 °F 62.6 °F 83% 30.07 in 10.0 mi ENE 5.8 mph - N/A   Overcast
2:55 AM 68.0 °F 62.6 °F 83% 30.07 in 10.0 mi ENE 4.6 mph - N/A Rain Light Rain
3:15 AM 68.0 °F 62.6 °F 83% 30.07 in 10.0 mi NE 4.6 mph - N/A Rain Light Rain
3:35 AM 66.2 °F 62.6 °F 88% 30.07 in 10.0 mi ENE 4.6 mph - N/A Rain Light Rain
3:55 AM 66.2 °F 62.6 °F 88% 30.07 in 10.0 mi ENE 4.6 mph - N/A   Overcast
4:15 AM 66.2 °F 62.6 °F 88% 30.07 in 10.0 mi ENE 3.5 mph - N/A Rain Light Rain
4:35 AM 64.4 °F 62.6 °F 94% 30.07 in 10.0 mi ENE 3.5 mph - N/A Rain Light Rain
4:55 AM 64.4 °F 62.6 °F 94% 30.08 in 10.0 mi Calm Calm - N/A   Mostly Cloudy
5:15 AM 64.4 °F 62.6 °F 94% 30.08 in 10.0 mi ENE 4.6 mph - N/A   Mostly Cloudy
5:35 AM 64.4 °F 62.6 °F 94% 30.09 in 10.0 mi ENE 3.5 mph - N/A   Overcast
5:55 AM 64.4 °F 60.8 °F 88% 30.10 in 10.0 mi ENE 5.8 mph - N/A   Overcast
6:15 AM 64.4 °F 60.8 °F 88% 30.10 in 10.0 mi NE 4.6 mph - N/A   Overcast
6:35 AM 64.4 °F 60.8 °F 88% 30.11 in 10.0 mi ENE 4.6 mph - N/A   Overcast
6:55 AM 64.4 °F 60.8 °F 88% 30.11 in 10.0 mi Calm Calm - N/A   Overcast
7:15 AM 64.4 °F 60.8 °F 88% 30.11 in 10.0 mi NE 5.8 mph - N/A   Overcast
7:35 AM 64.4 °F 60.8 °F 88% 30.12 in 10.0 mi ENE 3.5 mph - N/A   Overcast
7:55 AM 64.4 °F 60.8 °F 88% 30.13 in 10.0 mi ENE 3.5 mph - N/A   Overcast
8:15 AM 66.2 °F 60.8 °F 83% 30.14 in 10.0 mi NE 3.5 mph - N/A   Overcast
8:35 AM 66.2 °F 60.8 °F 83% 30.14 in 10.0 mi East 4.6 mph - N/A   Overcast
8:55 AM 66.2 °F 60.8 °F 83% 30.15 in 10.0 mi East 6.9 mph - N/A   Overcast
9:15 AM 66.2 °F 60.8 °F 83% 30.15 in 10.0 mi NE 6.9 mph - N/A   Overcast
9:55 AM 66.2 °F 60.8 °F 83% 30.16 in 10.0 mi NE 5.8 mph - N/A   Overcast
10:15 AM 66.2 °F 60.8 °F 83% 30.17 in 10.0 mi ENE 5.8 mph - N/A   Overcast
10:35 AM 66.2 °F 60.8 °F 83% 30.17 in 10.0 mi East 6.9 mph - N/A   Overcast
10:55 AM 68.0 °F 60.8 °F 78% 30.17 in 10.0 mi ENE 5.8 mph - N/A   Overcast
11:15 AM 68.0 °F 60.8 °F 78% 30.18 in 10.0 mi East 4.6 mph - N/A   Overcast
11:35 AM 66.2 °F 60.8 °F 83% 30.19 in 10.0 mi East 8.1 mph - N/A   Overcast
11:55 AM 68.0 °F 60.8 °F 78% 30.19 in 10.0 mi East 5.8 mph - N/A   Overcast
12:15 PM 68.0 °F 60.8 °F 78% 30.19 in 10.0 mi ENE 6.9 mph - N/A   Overcast
12:35 PM 68.0 °F 60.8 °F 78% 30.18 in 10.0 mi East 5.8 mph - N/A   Overcast
12:55 PM 68.0 °F 60.8 °F 78% 30.18 in 10.0 mi East 4.6 mph - N/A   Overcast
1:15 PM 68.0 °F 60.8 °F 78% 30.17 in 10.0 mi East 3.5 mph - N/A   Overcast
1:35 PM 68.0 °F 60.8 °F 78% 30.16 in 10.0 mi ENE 3.5 mph - N/A   Overcast
1:55 PM 69.8 °F 60.8 °F 73% 30.15 in 10.0 mi East 4.6 mph - N/A   Overcast
2:15 PM 69.8 °F 60.8 °F 73% 30.14 in 10.0 mi East 3.5 mph - N/A   Overcast
2:35 PM 71.6 °F 60.8 °F 69% 30.13 in 10.0 mi ENE 3.5 mph - N/A   Overcast
2:55 PM 71.6 °F 60.8 °F 69% 30.12 in 10.0 mi Calm Calm - N/A   Overcast
3:15 PM 71.6 °F 60.8 °F 69% 30.12 in 10.0 mi ENE 3.5 mph - N/A   Overcast
3:35 PM 71.6 °F 60.8 °F 69% 30.11 in 10.0 mi Calm Calm - N/A   Overcast
3:55 PM 73.4 °F 60.8 °F 65% 30.11 in 10.0 mi ENE 4.6 mph - N/A   Overcast
4:15 PM 73.4 °F 60.8 °F 65% 30.11 in 10.0 mi NE 4.6 mph - N/A   Mostly Cloudy
4:35 PM 75.2 °F 60.8 °F 61% 30.09 in 10.0 mi Calm Calm - N/A   Scattered Clouds
4:55 PM 75.2 °F 60.8 °F 61% 30.09 in 10.0 mi ESE 3.5 mph - N/A   Clear
5:15 PM 77.0 °F 60.8 °F 57% 30.09 in 10.0 mi ENE 4.6 mph - N/A   Clear
5:35 PM 77.0 °F 60.8 °F 57% 30.08 in 10.0 mi East 3.5 mph - N/A   Clear
5:55 PM 75.2 °F 60.8 °F 61% 30.08 in 10.0 mi ENE 3.5 mph - N/A   Clear
6:15 PM 75.2 °F 60.8 °F 61% 30.08 in 10.0 mi East 3.5 mph - N/A   Clear
6:35 PM 75.2 °F 60.8 °F 61% 30.08 in 10.0 mi Calm Calm - N/A   Clear
6:55 PM 73.4 °F 60.8 °F 65% 30.08 in 10.0 mi Calm Calm - N/A   Clear
7:15 PM 71.6 °F 62.6 °F 73% 30.08 in 10.0 mi Calm Calm - N/A   Clear
7:35 PM 69.8 °F 62.6 °F 78% 30.08 in 10.0 mi Calm Calm - N/A   Clear
7:55 PM 68.0 °F 62.6 °F 83% 30.08 in 10.0 mi Calm Calm - N/A   Clear
8:15 PM 66.2 °F 62.6 °F 88% 30.09 in 10.0 mi Calm Calm - N/A   Clear
8:35 PM 66.2 °F 62.6 °F 88% 30.10 in 10.0 mi Calm Calm - N/A   Clear
8:55 PM 64.4 °F 60.8 °F 88% 30.11 in 10.0 mi Calm Calm - N/A   Clear
9:15 PM 64.4 °F 60.8 °F 88% 30.11 in 10.0 mi Calm Calm - N/A   Clear
9:35 PM 64.4 °F 60.8 °F 88% 30.12 in 10.0 mi Calm Calm - N/A   Clear
9:55 PM 64.4 °F 60.8 °F 88% 30.12 in 10.0 mi Calm Calm - N/A   Clear
10:15 PM 64.4 °F 62.6 °F 94% 30.12 in 10.0 mi Calm Calm - N/A   Clear
10:35 PM 64.4 °F 60.8 °F 88% 30.13 in 10.0 mi Calm Calm - N/A   Clear
10:55 PM 64.4 °F 60.8 °F 88% 30.13 in 10.0 mi Calm Calm - N/A   Clear
11:15 PM 64.4 °F 62.6 °F 94% 30.14 in 10.0 mi Calm Calm - N/A   Clear
11:35 PM 64.4 °F 62.6 °F 94% 30.14 in 10.0 mi Calm Calm - N/A   Clear
11:55 PM 68.0 °F 62.6 °F 83% 30.13 in 10.0 mi ESE 5.8 mph - N/A   Clear